www.pogodaiklimat.ru

Погода и климат >> Архив погоды >> Индонезия >> Менадо


ПОГОДА в Менадо

  • Прогноз погоды в Менадо
  • Монитор погоды в Менадо

АРХИВ ПОГОДЫ в Менадо

Время (UTC), дата Ветер
(напр.,м/с)
 
Видим.   Явления Облачность Т
(С)
Тd
(С)
f
(%)
Тe
(С)
Тes
(С)
Комфортность P
(гПа)
Po
(гПа)
Тmin
(С)
Tmax
(С)
R
(мм)
R24
(мм)
S
(см)
03 12.08 ЮВ 3 10 км 3/1 630 м
[Cu hum As trans Ci fib]
+33.5 +19.2 43 +39 +52 опасность
солнечного
удара
1010.2 1001.1
06 12.08 Ю 6 10 км 5/4 630 м
[Cu hum As trans Ci fib]
+32.9 +20.1 47 +39 +43 очень
душно
1008.7 999.6
09 12.08 Ю 8 10 км 4/3 660 м
[Cu hum As trans Ci fib]
+30.9 +18.9 49 +36 +36 очень
душно
1009.0 999.8
12 12.08 Ю 4 10 км 3/1 700 м
[Cu hum As trans Ci fib]
+28.3 +18.7 56 +33 +33 очень
душно
1011.6 1002.3 +34.4
15 12.08 Ю 5 10 км 3/1 700 м
[Cu hum As trans Ci fib]
+28.9 +17.7 51 +33 +33 очень
душно
1012.2 1002.9
18 12.08 Ю 3 10 км 3/1 700 м
[Cu hum As trans Ci fib]
+27.8 +17.9 55 +32 +32 душно 1011.0 1001.7
21 12.08 Ю 5 10 км 4/3 700 м
[Cu hum As trans Ci fib]
+27.6 +19.4 61 +33 +33 очень
душно
1011.0 1001.7
00 13.08 В 2 10 км 3/1 700 м
[Cu hum As trans Ci fib]
+30.1 +19.5 53 +36 +42 очень
душно
1011.6 1002.4 +22.8
03 13.08 Ю 5 10 км 3/1 700 м
[Cu hum As trans Ci fib]
+33.1 +19.6 45 +39 +47 очень
душно
1010.7 1001.6
06 13.08 СЗ 3 10 км 5/3 660 м
[Cu med, cong As trans Ci fib]
+32.9 +21.7 52 +41 +49 опасность
перегрева
1008.6 999.5
09 13.08 С 2 10 км 5/3 660 м
[Cu med, cong Ac As Ci fib]
+30.1 +21.2 59 +38 +38 очень
душно
1009.5 1000.3
12 13.08 ЮВ 2 10 км 4/1 700 м
[Cu hum As trans Ci fib]
+26.8 +20.9 70 +34 +34 очень
душно
1011.8 1002.5 +34.4
15 13.08 В 3 10 км 4/3 700 м
[Cu hum As trans Ci fib]
+25.9 +20.2 71 +32 +32 очень
душно
1013.0 1003.7
18 13.08 ЮВ 4 10 км 4/3 700 м
[Cu hum As trans Ci fib]
+27.3 +18.9 60 +32 +32 очень
душно
1011.9 1002.6
21 13.08 ЮВ 3 10 км 5/3 660 м
[Cu hum Ac As Ci fib]
+23.3 +19.5 79 +30 +30 очень
душно
1012.1 1002.7
00 14.08 ЮВ 4 10 км 6/3 700 м
[Sc diur, vesp Ac trans Ci fib]
+30.1 +18.5 50 +35 +38 очень
душно
1012.4 1003.2 +22.6
03 14.08 Ю 8 10 км 4/1 700 м
[Cu hum Ac und Ci fib]
+32.2 +19.1 46 +38 +40 очень
душно
1011.2 1002.1
06 14.08 ЮВ 7 10 км 5/1 700 м
[Cu hum Ac und Ci fib]
+33.5 +19.6 44 +39 +42 очень
душно
1009.3 1000.2
09 14.08 ЮВ 6 10 км 6/3 660 м
[Cu hum Ac As Ci fib]
+30.0 +19.4 53 +36 +36 очень
душно
1010.2 1001.0
12 14.08 ЮВ 3 10 км 6/3 660 м
[Cu hum Ac As Ci fib]
+26.9 +19.5 64 +33 +33 очень
душно
1012.1 1002.8 +34.3
15 14.08 ЮВ 3 9000 м 6/3 660 м
[Cu hum Ac As Ci fib]
+25.5 +19.4 69 +31 +31 очень
душно
1012.5 1003.1
18 14.08 В 1 9000 м 5/1 660 м
[Cu hum Ac As Ci fib]
+23.2 +18.3 74 +29 +29 душно 1011.8 1002.4
21 14.08 ЮВ 2 9000 м 5/1 660 м
[Cu hum Ac As Ci fib]
+23.6 +18.7 74 +28 +28 душно 1011.7 1002.3
00 15.08 Ю 5 10 км 4/1 700 м
[Sc diur, vesp Ac As Ci fib]
+30.1 +17.9 48 +35 +37 очень
душно
1012.6 1003.4 +20.7
03 15.08 Ю 9 10 км 4/1 700 м
[Cu hum Ac As Ci fib]
+32.3 +18.8 45 +37 +39 очень
душно
1011.6 1002.4
06 15.08 Ю 7 10 км 5/3 660 м
[Cu Sc Ac As Ci fib]
+33.5 +18.8 42 +38 +41 очень
душно
1009.7 1000.6
09 15.08 Ю 4 10 км 5/3 660 м
[Cu Sc Ac As Ci fib]
+31.3 +19.3 49 +37 +37 очень
душно
1010.0 1000.8
12 15.08 Ю 4 10 км 6/3 660 м
[Cu Sc Ac As Ci fib]
+27.9 +18.6 57 +33 +33 очень
душно
1012.0 1002.7 +34.1
15 15.08 В 2 10 км 6/3 660 м
[Cu Sc Ac As Ci fib]
+25.2 +19.8 72 +31 +31 очень
душно
1012.8 1003.4
18 15.08 В 2 10 км 6/3 660 м
[Cu Sc Ac As Ci fib]
+25.0 +19.7 72 +30 +30 душно 1013.2 1003.8
21 15.08 В 1 10 км 6/3 660 м
[Cu Sc Ac As Ci fib]
+21.6 +19.9 90 +27 +27 душно 1011.3 1001.8
00 16.08 Ю 6 10 км 4/3 700 м
[Sc diur, vesp Ac und Ci fib]
+30.1 +19.2 52 +36 +38 очень
душно
1012.2 1003.0 +21.5
03 16.08 Ю 7 10 км 3/1 700 м
[Cu Sc As trans Ci fib]
+32.8 +19.6 46 +39 +44 очень
душно
1011.5 1002.4
06 16.08 Ю 5 10 км 6/4 660 м
[Cu Sc Ac und Ci fib]
+33.4 +19.5 44 +39 +43 очень
душно
1009.8 1000.7
09 16.08 СЗ 3 10 км 5/4 660 м
[Cu med, cong Ac lent Ci fib]
+30.5 +22.1 61 +39 +40 очень
душно
1009.7 1000.5
12 16.08 ЮВ 2 10 км 8/5 660 м
[Cu Sc Ac As Ci fib]
+26.2 +21.8 77 +34 +34 очень
душно
1012.1 1002.8 +34.1
15 16.08 ЮВ 3 9000 м 6/4 660 м
[Cu Sc Ac As Ci fib]
+25.3 +21.2 78 +32 +32 очень
душно
1012.8 1003.4
18 16.08 СВ 1 9000 м 6/4 660 м
[Cu Sc Ac As Ci fib]
+21.7 +20.5 93 +27 +27 душно 1012.0 1002.5
21 16.08 СВ 1 9000 м 6/4 660 м
[Cu Sc Ac As Ci fib]
+20.8 +19.5 92 +26 +26 душно 1011.9 1002.4
00 17.08 В 1 10 км 3/1 660 м
[Sc diur, vesp As trans Ci fib]
+29.3 +20.7 60 +36 +43 очень
душно
1012.1 1002.9 +20.6
03 17.08 Ю 3 10 км 5/4 630 м
[Cu Sc As trans Ci fib]
+33.5 +18.4 41 +38 +48 очень
душно
1011.4 1002.3
06 17.08 СЗ 3 10 км 6/5 630 м
[Cu Sc As trans Ci fib]
+31.5 +20.8 53 +39 +45 очень
душно
1010.0 1000.9
09 17.08 ЮВ 5 10 км 8/4 660 м
[Cu Sc Ac As Ci fib]
+27.1 +21.4 71 +34 +35 очень
душно
1010.8 1001.5
12 17.08 ЮВ 3 10 км 8/4 660 м
[Cu Sc Ac As Ci fib]
+25.7 +21.8 79 +33 +33 очень
душно
1012.6 1003.3 +33.4
15 17.08 ЮВ 2 10 км 6/3 660 м
[Cu hum Ac lent Ci fib]
+24.9 +21.6 82 +32 +32 очень
душно
1013.5 1004.1
18 17.08 С 22 1000 м 6/3 660 м
[Cu hum Ac und Ci fib]
+23.6 +20.5 83 +29 +29 душно 1012.1 1002.7
21 17.08 штиль 0 10 км 6/3 660 м
[Cu hum Ac lent Ci fib]
+21.3 +20.1 93 +26 +26 душно 1011.4 1001.9
00 18.08 ЮВ 3 10 км 3/1 720 м
[Sc diur, vesp As trans Ci fib]
+29.1 +21.3 63 +37 +42 очень
душно
1011.9 1002.7 +21.0
03 18.08 С 2 10 км 6/4 700 м
[Cu Sc As trans Ci fib]
+32.3 +21.2 52 +40 +50 очень
душно
1011.5 1002.4
06 18.08 СЗ 2 9000 м в посл. час дождь 8/5 660 м
[Cu Sc Ac As Ci fib]
+29.8 +21.5 61 +38 +43 очень
душно
1009.9 1000.7 0.0
09 18.08 В 2 10 км 6/4 630 м
[Cu Sc Ac As Ci fib]
+28.4 +22.6 71 +38 +38 очень
душно
1009.2 1000.0
12 18.08 ЮВ 3 9000 м 5/3 630 м
[Cu Sc Ac As Ci fib]
+26.1 +22.2 79 +34 +34 очень
душно
1011.9 1002.5 +33.3
15 18.08 СВ 1 9000 м 6/4 630 м
[Cu Sc Ac As Ci fib]
+24.1 +22.0 88 +31 +31 очень
душно
1012.8 1003.4
18 18.08 СВ 1 9000 м 6/4 630 м
[Cu Sc Ac As Ci fib]
+22.5 +20.8 90 +29 +29 очень
душно
1010.7 1001.3
21 18.08 С 1 9000 м 6/4 630 м
[Cu Sc Ac As Ci fib]
+22.4 +20.7 90 +29 +29 очень
душно
1010.7 1001.3
00 19.08 ЮВ 3 10 км 6/1 660 м
[Cu hum Ac As Cs]
+27.6 +20.7 66 +34 +39 очень
душно
1011.5 1002.2 +22.8 0.0

 

Местоположение метеостанции Менадо (Индонезия): широта 1.53 долгота 124.91 высота над уровнем моря 80 м.

В архиве по умолчанию представлена погода в Менадо за последнюю неделю. Архивные данные за месяц целиком и за предыдущие месяцы, начиная с января 2011 года, Вы можете получить, выбрав интересующий диапазон дат из раскрывающегося списка и нажав кнопку "Ввод!".


*Определитесь, кто Вы:
робот инопланетянин человек

Внимание! Время в таблицах - всемирное. Для получения местного времени необходимо прибавить поправку, которая равна 8 ч.

Смотрите также архив погоды в соседних городах и на ближайших метеорологических станциях:

Погода в Битунге (Индонезия) (32 км)
Погода в Горонтало (Индонезия) (234 км)
Погода в Тернате (Индонезия) (285 км)
Погода в Голеа (Индонезия) (326 км)
Погода в Лувуке (Индонезия) (359 км)
Погода в Лабухе (Индонезия) (375 км)
Погода на Санане (Индонезия) (419 км)
Погода в Толи-Толи (Индонезия) (461 км)
Погода в Генерал-Сантосе (Филиппины) (511 км)
Погода в Посо (Индонезия) (566 км)

Пояснения к столбцам:

Ветер - указаны скорость ветра в м/с - средняя за 10 мин, порывы в срок и между сроками (в фигурных скобках) и направление, откуда дует ветер: С - северный, СВ - северо-восточный, В - восточный, ЮВ - юго-восточный, Ю - южный, ЮЗ - юго-западный, З - западный, СЗ - северо-западный.
Видимость - горизонтальная дальность видимости в метрах или километрах. При видимости от 1 до 10 км при отсутствии осадков обычно наблюдается дымка, при ухудшении видимости до 1 км и менее - туман. В сухую погоду видимость может ухудшаться дымом, пылью или мглою.
Явления - указаны атмосферные явления, наблюдавшиеся в срок или в последний час перед сроком; фигурными скобками обозначены явления, наблюдавшиеся между сроками (за 1-3 часа до срока); квадратными скобками обозначены град или гололедные отложения с указанием их диаметра в мм.
Облачность - указаны через наклонную черту общая и нижняя облачность в баллах и высота нижней границы облаков в метрах; квадратными скобками обозначены формы облаков: Ci - перистые, Cs - перисто-слоистые, Cc - перисто-кучевые, Ac - высококучевые, As - высокослоистые, Sc - слоисто-кучевые, Ns - слоисто-дождевые, Cu - кучевые, Cb - кучево-дождевые. Подробнее классификацию облаков см. в Атласе облаков (PDF).
T - Температура воздуха - температура, измеренная на высоте 2 м над землей.
Td - Температура точки росы - температура, при понижении до которой содержащийся в воздухе водяной пар достигнет насыщения.
f - Относительная влажность воздуха - влажноcть воздуха, измеренная на высоте 2 м над землей.
Te - Эффективная температура - температура, которую ощущает одетый по сезону человек в тени. Характеристика душности погоды. При расчете учитывается влияние влажности воздуха и скорости ветра на теплоощущения человека.
Tes - Эффективная температура на солнце - температура, которую ощущает человек, с поправкой на солнечный нагрев. Характеристика знойности погоды. Зависит от высоты солнца над горизонтом, облачности и скорости ветра. Ночью, в пасмурную погоду, а также при ветре 12 м/с и более поправка равна нулю.
P - Атмосферное давление - приведенное к уровню моря атмосферное давление.
Po - Атмосферное давление - измеренное на уровне метеостанции атмосферное давление.
Tmin - Минимальная температура - минимум температуры воздуха на высоте 2 м над землей.
Tmax - Максимальная температура - максимум температуры воздуха на высоте 2 м над землей.
R - Количество осадков - Количество выпавших осадков за период времени, мм. При наведении курсора мыши на число - период времени, за который выпало указанное количество осадков.
R24 - Количество осадков - Количество выпавших осадков за 24 часа, мм.
S - Снежный покров - Высота снежного покрова, см. При наведении курсора мыши на число - состояние снежного покрова и степень покрытия местности в баллах.